• Join FlightAware (Why Join?)
  • Login
  • US Flag 
04:52AM EDT


 

Airport Tracker/Info


-or-


 

Live Flight TrackerFlight Track Log ✈ RPA3275 ✈ 14-May-2013 ✈ KALB - KPHL

Flight Track Log - Related Links

Times and Time Zones

All times are in EDT time to prevent confusion due to time zone crossing. See the RPA3275 flight status page for this flight to view local times or setup timezone preferences in your user account.

Time Position Orientation Groundspeed Altitude Reporting Facility
EDT Latitude Longitude Course Direction KTS MPH feet Rate Location/Type
06:59AM 42.7736 -73.8064 283° West 151 174 1,800  Level Boston Center
07:00AM 42.7853 -73.8744 283° West 232 267 4,200 2,640 Climbing Boston Center
07:01AM 42.7781 -73.9533 263° West 266 306 6,800 3,180 Climbing Boston Center
07:02AM 42.7683 -74.0578 263° West 277 319 10,200 2,700 Climbing Boston Center
07:03AM 42.7375 -74.1672 249° West 277 319 12,300 2,100 Climbing Boston Center
07:04AM 42.6756 -74.2531 226° Southwest 324 373 14,400 2,280 Climbing Boston Center
07:05AM 42.6008 -74.3611 227° Southwest 353 406 16,900 1,800 Climbing Boston Center
07:06AM 42.5389 -74.4492 226° Southwest 364 419 18,000 540 Climbing Boston Center
07:07AM 42.4556 -74.5647 226° Southwest 381 438 18,000  Level Boston Center
07:08AM 42.3911 -74.6581 227° Southwest 381 438 18,000  Level Boston Center
07:10AM 42.2483 -74.8608 226° Southwest 389 448 18,000  Level New York Center
07:11AM 42.1611 -74.9731 224° Southwest 389 448 18,000  Level New York Center
07:12AM 42.0689 -75.0508 212° Southwest 395 455 18,000  Level New York Center
07:13AM 41.9744 -75.1283 211° Southwest 406 467 18,000  Level New York Center
07:14AM 41.8758 -75.2083 211° Southwest 411 473 18,000  Level New York Center
07:15AM 41.7900 -75.2750 210° Southwest 418 481 18,000 -300 Level New York Center
07:16AM 41.6933 -75.3572 212° Southwest 418 481 17,500 -1,560 Descending New York Center
07:17AM 41.5922 -75.4364 210° Southwest 406 467 14,900 -2,220 Descending New York Center
07:18AM 41.5083 -75.5025 211° Southwest 377 434 13,200 -1,440 Descending New York Center
07:19AM 41.4267 -75.5686 211° Southwest 355 409 12,000 -600 Descending New York Center
07:20AM 41.3600 -75.6219 211° Southwest 347 399 12,000  Level New York Center
07:21AM 41.2619 -75.6728 201° Southwest 352 405 12,000  Level New York Center
07:22AM 41.1572 -75.6350 165° South 335 386 12,000  Level New York Center
07:23AM 41.0586 -75.6058 167° South 353 406 12,000  Level New York Center
07:24AM 40.9575 -75.5794 169° South 366 421 12,000  Level New York Center
07:25AM 40.8608 -75.5506 167° South 371 427 12,000  Level New York Center
07:26AM 40.7722 -75.5253 168° South 371 427 12,000  Level New York Center
07:27AM 40.6631 -75.4931 167° South 371 427 12,000 -60 Level New York Center
07:28AM 40.5661 -75.4644 167° South 371 427 11,900 -840 Descending New York Center
07:29AM 40.4897 -75.4456 169° South 360 414 10,400 -960 Descending New York Center
07:30AM 40.3942 -75.3847 154° Southeast 349 402 10,000 -240 Descending New York Center
07:31AM 40.3036 -75.3078 147° Southeast 356 410 10,000 -360 Level New York Center
07:32AM 40.2269 -75.2403 146° Southeast 350 403 9,400 -1,200 Descending New York Center
07:33AM 40.1578 -75.1950 153° Southeast 318 366 7,600 -1,740 Descending New York Center
07:34AM 40.0717 -75.1569 161° South 296 341 5,900 -1,980 Descending New York Center
07:35AM 40.0053 -75.1447 172° South 281 323 3,800 -2,040 Descending New York Center
07:36AM 39.9264 -75.1369 176° South 265 305 1,900 -1,920 Descending New York Center